Location: La Silve
(44.2414°N, 5.8889°E)
Time: 10:10:55
(UTC+00:00)

SL-23 DEB - Pass Details

Date: 01 December 2020
Orbit: 425 x 3627 km, 51.4° (Epoch: 26 January)

Event Time Altitude Azimuth Distance (km) Brightness Sun altitude
Rises 16:43:19 0° 224° (SW) 2,402 8.5 -8.0°
Reaches altitude 10° 16:45:08 10° 220° (SW) 1,614 7.3 -8.3°
Maximum altitude 16:48:28 56° 140° (SE) 677 4.2 -8.8°
Enters shadow 16:53:02 12° 64° (ENE) 2,231 6.2 -9.6°
